FW4396 Weather Reports


time (UTC)temp
C
wind
direction
speed
KPH
gust
KPH
rain 1hr
cm
rain 24hr
cm
rain mn
cm
humidity
%
barometer
mb
20260509153104 13 211 0.0 3.2 0.13 0.13 0.13 77 1012.1
20260509151621 14 211 0.0 3.2 0.08 0.08 0.08 76 1012.0
20260509150056 14 211 1.6 3.2 0.03 0.03 0.03 72 1012.2
20260509144559 15 211 0.0 3.2 0.00 0.00 0.00 70 1012.5
20260509143055 15 250 1.6 6.4 0.00 0.00 0.00 67 1012.2
20260509141553 15 275 3.2 8.0 0.00 0.00 0.00 65 1012.1
20260509134545 14 222 1.6 4.8 0.00 0.00 0.00 66 1011.8
20260509133043 13 198 1.6 6.4 0.00 0.00 0.00 67 1011.6
20260509131543 13 196 0.0 3.2 0.00 0.00 0.00 70 1011.5
20260509130036 13 196 0.0 3.2 0.00 0.00 0.00 69 1011.5
20260509124532 13 198 0.0 4.8 0.00 0.00 0.00 69 1011.5
20260509123033 13 171 1.6 4.8 0.00 0.00 0.00 70 1011.6
20260509121528 12 182 0.0 3.2 0.00 0.00 0.00 73 1011.3
20260509120035 12 195 1.6 8.0 0.00 0.00 0.00 75 1011.6
20260509114522 11 148 0.0 4.8 0.00 0.00 0.00 78 1011.0
20260509113020 11 149 0.0 3.2 0.00 0.00 0.00 80 1011.2
20260509111520 11 149 1.6 3.2 0.00 0.00 0.00 82 1011.0
20260509110018 11 149 0.0 1.6 0.00 0.00 0.00 82 1010.7
20260509104520 11 149 0.0 1.6 0.00 0.00 0.00 82 1011.0
20260509103017 11 149 0.0 1.6 0.00 0.00 0.00 81 1010.9
20260509101514 10 149 0.0 3.2 0.00 0.00 0.00 81 1010.7
20260509100012 10 149 0.0 0.0 0.00 0.00 0.00 80 1010.6
20260509094511 10 149 0.0 1.6 0.00 0.00 0.00 80 1010.5
20260509093010 10 149 0.0 1.6 0.00 0.00 0.00 80 1010.7
20260509091508 10 149 0.0 1.6 0.00 0.00 0.00 80 1010.7
20260509090008 10 149 0.0 0.0 0.00 0.00 0.00 79 1010.7
20260509084509 10 149 0.0 0.0 0.00 0.00 0.00 78 1011.0
20260509083005 10 149 0.0 1.6 0.00 0.00 0.00 78 1011.0
20260509081503 10 149 0.0 3.2 0.00 0.00 0.00 78 1011.2
20260509080002 10 149 0.0 3.2 0.00 0.00 0.00 77 1011.2
20260509074601 10 149 0.0 0.0 0.00 0.00 0.00 76 1011.2
20260509073138 10 149 0.0 0.0 0.00 0.00 0.00 76 1011.3
20260509071558 11 149 0.0 1.6 0.00 0.00 0.00 75 1011.3
20260509070059 11 149 0.0 1.6 0.00 0.00 0.00 74 1011.5
20260509064554 11 149 1.6 3.2 0.00 0.00 0.00 74 1011.4
20260509063053 11 149 0.0 1.6 0.00 0.00 0.00 73 1011.3
20260509061557 11 149 0.0 1.6 0.00 0.00 0.00 73 1011.4
20260509060101 11 149 0.0 1.6 0.00 0.00 0.00 73 1011.3
20260509054602 11 149 0.0 1.6 0.00 0.00 0.00 72 1011.6
20260509053045 11 149 0.0 3.2 0.00 0.00 0.00 72 1012.0
20260509051544 12 149 0.0 4.8 0.00 0.00 0.00 72 1012.3
20260509050043 12 151 1.6 6.4 0.00 0.00 0.00 72 1012.2
20260509044541 12 149 0.0 3.2 0.00 0.00 0.00 73 1012.2
20260509043041 12 149 0.0 1.6 0.00 0.00 0.00 72 1012.1